This demonstration page uses our WeatherBlox Daily Observations layout. Learn more.

38.80484, -77.04692

Hourly Observations for June 29, 2019

Temp ( °F °C ) Dew Point ( °F °C ) Humidity (%) Winds ( mph kmh ) Pressure ( in mb ) Visibility ( mi km ) Precip ( " mm )
12:52 am 00:52 Mostly Cloudy 79 26.1 66 18.9 65 65 WSW 3 6 30.09 1019 10 16.09344 0 0
1:52 am 01:52 Mostly Cloudy 76 24.4 67 19.4 74 74 SW 6 9 30.09 1019 10 16.09344 0 0
2:52 am 02:52 Mostly Cloudy 76 24.4 66 18.9 72 72 SW 7 11 30.06 1018 10 16.09344 0 0
3:52 am 03:52 Mostly Cloudy 74 23.3 65 18.3 74 74 SSW 8 13 30.06 1018 10 16.09344 0 0
4:52 am 04:52 Mostly Cloudy 73 22.8 65 18.3 76 76 SW 6 9 30.09 1019 10 16.09344 0 0
5:52 am 05:52 Mostly Cloudy 72 22.2 66 18.9 82 82 SW 5 7 30.09 1019 10 16.09344 0 0
6:52 am 06:52 Mostly Cloudy 74 23.3 66 18.9 76 76 SSW 7 11 30.09 1019 10 16.09344 0 0
7:52 am 07:52 Sunny 78 25.6 66 18.9 67 67 Calm 30.09 1019 10 16.09344 0 0
8:52 am 08:52 Partly Cloudy 81 27.2 69 20.6 67 67 VRB 3 6 30.09 1019 10 16.09344 0 0
9:52 am 09:52 Partly Cloudy 84 28.9 69 20.6 61 61 E 6 9 30.09 1019 10 16.09344 0 0
10:52 am 10:52 Partly Cloudy 90 32.2 70 21.1 52 52 N 8 13 30.06 1018 10 16.09344 0 0
11:52 am 11:52 Partly Cloudy 92 33.3 69 20.6 47 47 WNW 10 17 30.06 1018 10 16.09344 0 0
12:52 pm 12:52 Mostly Cloudy 92 33.3 69 20.6 47 47 NNW 10 17 30.03 1017 10 16.09344 0 0
1:52 pm 13:52 Mostly Cloudy 94 34.4 68 20 43 43 VRB 6 9 30 1016 10 16.09344 0 0
2:15 pm 14:15 Windy with Storms Likely 88 31.1 60 15.6 39 39 NNW 22 35 30.03 1017 10 16.09344 0.001 0.001
2:25 pm 14:25 Windy with Storms Likely 84 28.9 68 20 59 59 N 23 37 30 1016 10 16.09344 0.001 0.001
2:39 pm 14:39 Mostly Cloudy 91 32.8 70 21.1 50 50 N 6 9 30 1016 10 16.09344 0.001 0.001
3:37 pm 15:37 Mostly Cloudy with Nearby Thunderstorms 95 35 65 18.3 37 37 WSW 20 31 30 1016 10 16.09344 0 0
3:52 pm 15:52 Mostly Cloudy with Nearby Thunderstorms 95 35 65 18.3 37 37 NW 13 20 29.97 1015 10 16.09344 0 0
4:04 pm 16:04 Mostly Sunny 94 34.4 65 18.3 38 38 W 12 19 29.97 1015 10 16.09344 0 0
4:06 pm 16:06 Mostly Cloudy with Thunderstorms 93 33.9 65 18.3 40 40 W 16 26 29.97 1015 10 16.09344 0 0
4:45 pm 16:45 Mostly Cloudy with Thunderstorms 87 30.6 65 18.3 48 48 S 10 17 29.97 1015 10 16.09344 0.01 0.254
4:52 pm 16:52 Mostly Cloudy 87 30.6 67 19.4 51 51 S 12 19 29.94 1014 10 16.09344 0.01 0.254
5:52 pm 17:52 Mostly Cloudy 86 30 71 21.7 61 61 SSE 10 17 29.94 1014 10 16.09344 0 0
6:52 pm 18:52 Mostly Cloudy 85 29.4 68 20 57 57 S 6 9 29.94 1014 10 16.09344 0 0
7:52 pm 19:52 Cloudy 84 28.9 69 20.6 61 61 S 10 17 29.97 1015 10 16.09344 0 0
8:52 pm 20:52 Mostly Cloudy 80 26.7 71 21.7 74 74 S 9 15 29.97 1015 10 16.09344 0 0
9:52 pm 21:52 Mostly Cloudy 78 25.6 70 21.1 76 76 S 12 19 29.94 1014 10 16.09344 0 0
10:52 pm 22:52 Cloudy 78 25.6 70 21.1 76 76 SSW 7 11 29.94 1014 10 16.09344 0 0
11:41 pm 23:41 Cloudy with Thunderstorms 82 27.8 67 19.4 60 60 WNW 10 17 30 1016 10 16.09344 0 0
11:52 pm 23:52 Cloudy with Light Thunderstorms 82 27.8 65 18.3 56 56 WNW 17 28 29.97 1015 10 16.09344 0.001 0.001
11:58 pm 23:58 Cloudy with Light Rain 80 26.7 65 18.3 60 60 WNW 14 22 29.97 1015 7 11.265408 0.001 0.001

Powered by AerisWeather